www.pogodaiklimat.ru

Погода и климат >> Архив погоды >> Россия >> Томская область >> Степановка


ПОГОДА в Степановке

  • Прогноз погоды в Степановке
  • Монитор погоды в Степановке
  • Климат города

АРХИВ ПОГОДЫ в Степановке

Время (UTC), дата Ветер
(напр.,м/с)
 
Видим.   Явления Облачность Т
(С)
Тd
(С)
f
(%)
Тe
(С)
Тes
(С)
Комфортность P
(гПа)
Po
(гПа)
Тmin
(С)
Tmax
(С)
R
(мм)
R24
(мм)
S
(см)
18 11.12 ЮВ 1 20 км ясно -23.0 -25.6 79 -26 -26 1032.9 1018.3
21 11.12 штиль 0 20 км ясно -24.9 -27.8 77 -25 -25 1032.0 1017.3
00 12.12 ЮВ 1 20 км ясно -23.2 -25.9 78 -27 -27 1031.1 1016.5 -25.2 55
03 12.12 ЮВ 1 4000 м дымка 10/0
[As op]
-21.2 -23.8 79 -24 -24 1030.3 1015.9
06 12.12 штиль 0 4000 м слабый снег 10/0
[As op]
-14.6 -16.5 85 -15 -15 1028.5 1014.5
09 12.12 ЮВ 1 4000 м слабый снег 10/0
[As op]
-12.5 -14.3 86 -15 -15 1027.5 1013.5
12 12.12 Ю 1 4000 м слабый снег 10/0
[As op]
-11.4 -13.2 86 -14 -14 1026.5 1012.7 -11.4 0.2
15 12.12 Ю 1 4000 м слабый снег 10/0
[As op]
-10.3 -11.7 89 -13 -13 1025.3 1011.5
18 12.12 Ю 2 20 км {снег} 10/10 600 м
[Sc]
-9.6 -11.6 85 -14 -14 1024.4 1010.7
21 12.12 ЮЗ 1 4000 м слабый ливневой снег 10/10 600 м
[Cb cap]
-9.7 -11.6 86 -12 -12 1024.2 1010.5
00 13.12 ЮЗ 1 4000 м слабый ливневой снег 10/10 600 м
[Cb cap]
-9.6 -11.4 87 -12 -12 1024.1 1010.4 -11.4 0.9 55
03 13.12 ЮЗ 2 20 км {ливн. осадки} 10/10 600 м
[Cb cap]
-9.8 -11.6 87 -14 -14 1024.3 1010.5
06 13.12 ЮЗ 2 4000 м слабый ливневой снег 10/6 600 м
[Cb cap Ac trans Ci fib]
-11.1 -13.0 86 -16 -16 1023.8 1010.0
09 13.12 ЮЗ 3 4000 м слабый ливневой снег 10/10 600 м
[Cb cap]
-9.9 -12.2 83 -16 -16 1023.5 1009.8
12 13.12 ЮЗ 2 4000 м слабый ливневой снег 10/10 600 м
[Cb cap]
-10.8 -12.7 86 -15 -15 1023.7 1009.9 -9.6 0.8
15 13.12 ЮЗ 2 20 км {ливн. осадки} 10/10 600 м
[Sc]
-10.2 -12.1 86 -15 -15 1022.4 1008.7
18 13.12 Ю 2 4000 м слабый снег {ливн. осадки} 10/0
[As op]
-9.6 -11.3 87 -14 -14 1020.4 1006.7
21 13.12 Ю 2 4000 м слабый снег 10/0
[As op]
-9.8 -11.5 87 -14 -14 1017.6 1004.0
00 14.12 ЮЗ 3 4000 м слабый снег 10/0
[As op]
-10.8 -12.8 85 -17 -17 1016.3 1002.6 -10.9 3 56
03 14.12 ЮЗ 3 4000 м слабый снег 10/0
[As op]
-11.0 -12.8 87 -17 -17 1016.0 1002.4 -11.1
06 14.12 ЮЗ 3 4000 м слабый снег 10/0
[As op]
-9.8 -11.5 87 -16 -16 1015.9 1002.2
09 14.12 ЮЗ 4 4000 м слабый снег 10/0
[As op]
-8.2 -9.8 88 -15 -15 1016.4 1002.9
12 14.12 ЮЗ 3 20 км {снег} 10/0
[As op]
-9.8 -12.0 84 -16 -16 1017.7 1004.1 -8.2 2
15 14.12 ЮЗ 2 20 км 10/0
[Ac und]
-10.5 -12.6 85 -15 -15 1018.1 1004.4
18 14.12 ЮЗ 3 20 км 10/0
[As op]
-8.9 -11.1 84 -15 -15 1016.5 1002.9
21 14.12 ЮЗ 4 20 км в посл. час снег 10/10 600 м
[Sc]
-7.4 -8.6 91 -14 -14 1014.5 1001.0
00 15.12 ЮЗ 4 4000 м слабый снег 10/0
[As op]
-6.1 -7.2 92 -13 -13 1013.8 1000.4 -10.6 0.7 57
03 15.12 ЮЗ 5
{10}
4000 м слабый снег 10/0 600 м
[As op]
-5.3 -6.5 91 -13 -13 1013.6 1000.2
06 15.12 ЮЗ 4
{10}
20 км в посл. час дождь со снегом 10/0
[As op]
-5.2 -6.4 91 -12 -12 1014.2 1000.8
09 15.12 ЮЗ 3 4000 м слабый снег 10/0
[As op]
-5.3 -6.5 91 -11 -11 1015.1 1001.8
12 15.12 ЮЗ 3 4000 м слабый снег 10/0
[As op]
-6.2 -7.4 91 -12 -12 1016.3 1002.9 -5.1 2
15 15.12 ЮЗ 3 4000 м слабый снег 10/0
[As op]
-6.8 -8.0 91 -13 -13 1017.8 1004.3
18 15.12 ЮЗ 2 4000 м слабый снег 10/0
[As op]
-7.0 -8.1 92 -11 -11 1019.3 1005.8
21 15.12 ЮЗ 2 4000 м слабый снег 10/0
[As op]
-7.4 -8.5 92 -12 -12 1020.7 1007.1
00 16.12 ЮЗ 1 4000 м слабый снег 10/0
[As op]
-7.3 -8.3 93 -10 -10 1020.9 1007.3 -7.7 2 60
03 16.12 ЮЗ 1 4000 м слабый снег 10/0
[As op]
-7.7 -8.8 92 -10 -10 1021.0 1007.4 -7.7
06 16.12 ЮЗ 1 4000 м слабый ливневой снег 10/10 600 м
[Cb cap]
-7.6 -8.8 91 -10 -10 1020.5 1006.9
09 16.12 штиль 0 20 км {ливн. осадки} 9/0
[Ac As]
-9.3 -10.5 91 -10 -10 1020.9 1007.3
12 16.12 штиль 0 20 км {ливн. осадки} 10/0
[Ac As]
-11.3 -12.7 89 -11 -11 1021.3 1007.5 -7.2 0.3
15 16.12 ЮЗ 1 4000 м слабый снег 10/0
[As op]
-9.4 -10.7 90 -12 -12 1021.2 1007.5
18 16.12 Ю 1 4000 м слабый снег 10/0
[As op]
-9.5 -10.8 90 -12 -12 1021.2 1007.6
21 16.12 Ю 1 4000 м слабый снег 10/0
[As op]
-9.3 -10.7 90 -12 -12 1020.9 1007.2
00 17.12 ЮЗ 1 4000 м слабый снег 10/5 600 м
[Sc As op]
-9.4 -10.6 91 -12 -12 1020.3 1006.6 -11.3 0.8 61
03 17.12 ЮЗ 2 4000 м слабый снег 10/6 600 м
[Sc As op]
-9.7 -11.1 89 -14 -14 1019.8 1006.1
06 17.12 ЮЗ 3 4000 м слабый ливневой снег 9/9 600 м
[Cb cap]
-9.7 -11.3 88 -16 -16 1019.8 1006.1
09 17.12 ЮЗ 2 20 км {ливн. осадки} 10/10 600 м
[Cb cap]
-9.7 -11.2 89 -14 -14 1019.8 1006.2
12 17.12 ЮЗ 2 20 км {ливн. осадки} 10/10 600 м
[Cb cap]
-9.8 -11.1 90 -14 -14 1019.5 1005.8 -9.4 0.2
15 17.12 ЮЗ 2 20 км 10/10 600 м
[Sc]
-9.8 -11.0 91 -14 -14 1019.1 1005.4
18 17.12 ЮЗ 2 4000 м слабый ливневой снег 10/10 600 м
[Cb cap]
-10.0 -11.6 88 -15 -15 1019.0 1005.4
21 17.12 ЮЗ 3 4000 м слабый ливневой снег {метель} 10/10 600 м
[Cb cap]
-9.0 -10.5 89 -15 -15 1019.2 1005.6
00 18.12 ЮЗ 3 20 км {ливн. осадки, метель} 10/10 600 м
[Sc]
-8.5 -10.1 88 -14 -14 1018.7 1005.1 -10.1 1 65
03 18.12 ЮЗ 3 20 км 10/10 600 м
[Sc]
-8.3 -9.7 90 -14 -14 1018.3 1004.8
06 18.12 ЮЗ 3 20 км 10/10 600 м
[Sc]
-7.7 -8.8 92 -14 -14 1018.0 1004.5
09 18.12 ЮЗ 3 20 км 10/10 600 м
[Sc]
-7.7 -9.2 89 -14 -14 1016.6 1003.1
12 18.12 ЮЗ 2 4000 м слабый ливневой снег 10/10 600 м
[Cb cap]
-8.3 -9.7 90 -13 -13 1014.9 1001.3 -7.5 0.0

 

Местоположение метеостанции Степановка (Томская область, Россия): широта 58.63 долгота 86.73 высота над уровнем моря 105 м.

В архиве по умолчанию представлена погода в Степановке за последнюю неделю. Архивные данные за месяц целиком и за предыдущие месяцы, начиная с января 2011 года, Вы можете получить, выбрав интересующий диапазон дат из раскрывающегося списка и нажав кнопку "Ввод!".


*Определитесь, кто Вы:
робот инопланетянин человек

Внимание! Время в таблицах - всемирное. Для получения местного времени необходимо прибавить поправку, которая в Степановке равна 7 ч.

Смотрите также архив погоды в соседних городах и на ближайших метеорологических станциях:

Погода в Усть-Озерное (Томская область, Россия) (65 км)
Погода в Батурино (Томская область, Россия) (132 км)
Погода в Лосиноборске (Красноярский край, Россия) (155 км)
Погода в Тегульдете (Томская область, Россия) (170 км)
Погода в Александровском Шлюзе (Красноярский край, Россия) (171 км)
Погода в Первомайском (Томская область, Россия) (176 км)
Погода в Молчаново (Томская область, Россия) (209 км)
Погода в Сыме (Красноярский край, Россия) (213 км)
Погода в Колпашево (Томская область, Россия) (222 км)
Погода в Ванжиль-Кынак (Томская область, Россия) (243 км)

Пояснения к столбцам:

Ветер - указаны скорость ветра в м/с - средняя за 10 мин, порывы в срок и между сроками (в фигурных скобках) и направление, откуда дует ветер: С - северный, СВ - северо-восточный, В - восточный, ЮВ - юго-восточный, Ю - южный, ЮЗ - юго-западный, З - западный, СЗ - северо-западный.
Видимость - горизонтальная дальность видимости в метрах или километрах. При видимости от 1 до 10 км при отсутствии осадков обычно наблюдается дымка, при ухудшении видимости до 1 км и менее - туман. В сухую погоду видимость может ухудшаться дымом, пылью или мглою.
Явления - указаны атмосферные явления, наблюдавшиеся в срок или в последний час перед сроком; фигурными скобками обозначены явления, наблюдавшиеся между сроками (за 1-3 часа до срока); квадратными скобками обозначены град или гололедные отложения с указанием их диаметра в мм.
Облачность - указаны через наклонную черту общая и нижняя облачность в баллах и высота нижней границы облаков в метрах; квадратными скобками обозначены формы облаков: Ci - перистые, Cs - перисто-слоистые, Cc - перисто-кучевые, Ac - высококучевые, As - высокослоистые, Sc - слоисто-кучевые, Ns - слоисто-дождевые, Cu - кучевые, Cb - кучево-дождевые. Подробнее классификацию облаков см. в Атласе облаков (PDF).
T - Температура воздуха - температура, измеренная на высоте 2 м над землей.
Td - Температура точки росы - температура, при понижении до которой содержащийся в воздухе водяной пар достигнет насыщения.
f - Относительная влажность воздуха - влажноcть воздуха, измеренная на высоте 2 м над землей.
Te - Эффективная температура - температура, которую ощущает одетый по сезону человек в тени. Характеристика душности погоды. При расчете учитывается влияние влажности воздуха и скорости ветра на теплоощущения человека.
Tes - Эффективная температура на солнце - температура, которую ощущает человек, с поправкой на солнечный нагрев. Характеристика знойности погоды. Зависит от высоты солнца над горизонтом, облачности и скорости ветра. Ночью, в пасмурную погоду, а также при ветре 12 м/с и более поправка равна нулю.
P - Атмосферное давление - приведенное к уровню моря атмосферное давление.
Po - Атмосферное давление - измеренное на уровне метеостанции атмосферное давление.
Tmin - Минимальная температура - минимум температуры воздуха на высоте 2 м над землей.
Tmax - Максимальная температура - максимум температуры воздуха на высоте 2 м над землей.
R - Количество осадков - Количество выпавших осадков за период времени, мм. При наведении курсора мыши на число - период времени, за который выпало указанное количество осадков.
R24 - Количество осадков - Количество выпавших осадков за 24 часа, мм.
S - Снежный покров - Высота снежного покрова, см. При наведении курсора мыши на число - состояние снежного покрова и степень покрытия местности в баллах.